Location: A�n Tadlesse
(35.0351°N, 0.5353°E)
Time: 19:34:05
(UTC+00:00)

CENTAUR R/B - Pass Details

Date: 21 October 2019
Orbit: 781 x 1407 km, 63.4° (Epoch: 10 November)

Event Time Altitude Azimuth Distance (km) Brightness Sun altitude
Rises 20:20:43 0° 250° (WSW) 3,433 6.0 -38.3°
Reaches altitude 10° 20:23:32 10° 264° (W) 2,578 5.3 -38.9°
Maximum altitude 20:28:22 24° 317° (NW) 1,890 4.3 -39.8°
Enters shadow 20:29:56 22° 339° (NNW) 2,030 4.4 -40.1°
